This is the latest recevied weather packets stored in our database for station/object KB9MLJ. If no packets are shown the sender has not sent any weather packets the latest 10 day(s).
| Time | Temp. | Humidity | Pressure | Rain* | Wind** | Luminosity | Snow |
|---|---|---|---|---|---|---|---|
| 1777922324 | 26.11° C | 45% | 1001 hPa | 0 mm | - | 668 W/m² | - |
| 1777922022 | 26.11° C | 46% | 1000.5 hPa | 0 mm | - | 653 W/m² | - |
| 1777921717 | 26.11° C | 46% | 1001 hPa | 0 mm | - | 648 W/m² | - |
| 1777921413 | 26.11° C | 44% | 1000.5 hPa | 0 mm | - | 676 W/m² | - |
| 1777921110 | 26.67° C | 45% | 1001 hPa | 0 mm | - | 684 W/m² | - |
| 1777920807 | 26.11° C | 46% | 1001.3 hPa | 0 mm | - | 698 W/m² | - |
| 1777920503 | 26.11° C | 46% | 1001 hPa | 0 mm | - | 698 W/m² | - |
| 1777920199 | 25.56° C | 48% | 1001.3 hPa | 0 mm | - | 753 W/m² | - |
| 1777919895 | 26.11° C | 47% | 1001.3 hPa | 0 mm | - | 426 W/m² | - |
| 1777919593 | 26.67° C | 45% | 1001 hPa | 0 mm | - | 598 W/m² | - |
| 1777919290 | 26.11° C | 45% | 1001 hPa | 0 mm | - | 760 W/m² | - |
| 1777918988 | 26.67° C | 44% | 1001.3 hPa | 0 mm | - | 196 W/m² | - |
| 1777918685 | 26.11° C | 45% | 1001.3 hPa | 0 mm | - | 769 W/m² | - |
| 1777918382 | 25.56° C | 45% | 1001 hPa | 0 mm | - | 729 W/m² | - |
| 1777918081 | 25.56° C | 44% | 1001 hPa | 0 mm | - | 643 W/m² | - |
| 1777917779 | 25.56° C | 45% | 1001.3 hPa | 0 mm | - | 720 W/m² | - |
| 1777917476 | 26.11° C | 45% | 1001.3 hPa | 0 mm | - | 728 W/m² | - |
| 1777917173 | 26.11° C | 44% | 1001.3 hPa | 0 mm | - | 742 W/m² | - |
| 1777916871 | 25.56° C | 45% | 1001.3 hPa | 0 mm | - | 569 W/m² | - |
| 1777916569 | 25.56° C | 44% | 1001.3 hPa | 0 mm | - | 718 W/m² | - |
| 1777916265 | 25° C | 47% | 1001.3 hPa | 0 mm | - | 734 W/m² | - |
| 1777915962 | 25° C | 47% | 1001.6 hPa | 0 mm | - | 719 W/m² | - |
| 1777915659 | 25.56° C | 49% | 1001.6 hPa | 0 mm | - | 749 W/m² | - |
| 1777915355 | 25° C | 50% | 1001.6 hPa | 0 mm | - | 714 W/m² | - |
| 1777915051 | 24.44° C | 50% | 1001.6 hPa | 0 mm | - | 729 W/m² | - |
* Rain latest hour (hover to see other rain measurements)
** Current wind speed in m/s (hover to see current wind gust speed)